Regional Weather Roundup
Issued by NWS

Home | Current Version | Previous Version | Text Only | Print | Product List | Glossary Off
Versions: 1 2 3 4 5 6 7 8 9 10 11 12 13 14 15 16 17 18 19 20 21 22 23 24 25 26 27 28 29 30 31 32 33 34 35 36 37 38 39 40 41 42 43 44 45 46 47 48 49 50

000
ASUS45 KTFX 242210
RWRMT
MONTANA REGIONAL WEATHER ROUNDUP
NATIONAL WEATHER SERVICE GREAT FALLS MT
400 PM MDT WED AUG 24 2016

NOTE: "FAIR" INDICATES FEW OR NO CLOUDS BELOW 12000 FEET WITH NO
SIGNIFICANT WEATHER AND/OR OBSTRUCTIONS TO VISIBILITY.

MTZ001>007-043-242300-
WEST OF THE DIVIDE

CITY           SKY/WX    TMP DP  RH WIND       PRES   REMARKS
KALISPELL      CLOUDY    75  36  24 N21       30.26F
MISSOULA       MOSUNNY   68  45  43 SW8       30.28F
BUTTE          CLOUDY    62  33  33 N13G18    30.33F
MULLAN PASS    CLOUDY    63  40  42 CALM      30.36F
DEER LODGE       N/A     63  34  34 N8        30.36S
EUREKA           N/A     73  37  27 W13       30.27F
HAMILTON         N/A     70  43  37 N16G24    30.24F
LIBBY            N/A     75  37  25 NW5       30.25F
$$

MTZ008-052>055-242300-
SOUTHWEST MONTANA

CITY           SKY/WX    TMP DP  RH WIND       PRES   REMARKS
BOZEMAN        CLOUDY    64  41  42 N14G24    30.30S
DILLON         SUNNY     68  32  26 NE20G25   30.26F
W YELLOWSTONE  CLOUDY    63  30  29 NE12G18   30.26S
ENNIS          SUNNY     64  34  32 N24       30.32F
THREE FORKS      N/A     68 -30   1 N12       30.27S
TWIN BRIDGES     N/A     68  32  26 N20       30.22F
$$

MTZ009-010-012-014-046-048-049-054-242300-
EAST SLOPES AND CENTRAL MONTANA

CITY           SKY/WX    TMP DP  RH WIND       PRES   REMARKS
CUT BANK       CLOUDY    62  36  37 N12       30.35F
GREAT FALLS    CLOUDY    61  38  42 SE6       30.34S
MALMSTROM AFB  PTSUNNY   60  39  45 MISG      30.34F
HELENA         MOSUNNY   68  36  30 N14       30.32F
CHOTEAU          N/A     63  37  39 N10G17    30.37S
$$

MTZ011-013-016-021-045-047-050-051-242300-
NORTH CENTRAL MONTANA

CITY           SKY/WX    TMP DP  RH WIND       PRES   REMARKS
HAVRE          CLOUDY    65  46  50 W13       30.29F
LEWISTOWN      CLOUDY    56  42  59 NW9       30.34R
N BAR RANCH    CLOUDY    55  39  54 NW18G25   30.33S
CHINOOK          N/A     64  45  48 W13       30.26F
$$

MTZ017>020-022>027-061-062-242300-
NORTHEAST MONTANA

CITY           SKY/WX    TMP DP  RH WIND       PRES   REMARKS
GLASGOW        CLOUDY    60  46  59 NW28G33   30.18R
JORDAN           N/A     64  42  44 NW29      30.21S
SIDNEY         MOSUNNY   63  46  54 NW24G33   30.08S
WOLF POINT     CLOUDY    63  47  55 NW22G36   30.14S
POPLAR           N/A     57  52  82 NW15G36   30.12R
$$

MTZ028>42-056>058-242300-
SOUTHCENTRAL AND SOUTHEAST MONTANA

CITY           SKY/WX    TMP DP  RH WIND       PRES   REMARKS
BAKER          CLOUDY    67  41  38 NW26G35   30.15R
BILLINGS       MOSUNNY   68  40  35 N18G25    30.26S
LIVINGSTON     SUNNY     67  37  33 NW13G22   30.29S
MILES CITY     MOSUNNY   70  40  33 NW25G35   30.17R
FORSYTH          N/A     66  39  37 NW18G28   30.19S
LAUREL           N/A     67  40  37 N5        30.24R
ROUNDUP          N/A     64  38  38 NW20      30.16S
$$

REGIONAL REPORTS...DAKOTAS

CITY           SKY/WX    TMP DP  RH WIND       PRES   REMARKS
WILLISTON      CLOUDY    64  50  60 W17       30.05R
MINOT          PTSUNNY   71  46  40 W22G33    29.94R
DICKINSON      PTSUNNY   66  42  41 NW25G32   30.07R
CROSBY         PTSUNNY   59  54  82 NW22G30   30.02R
WATFORD CITY   PTSUNNY   66  45  45 NW21G30   30.05F
BISMARCK       PTSUNNY   72  47  40 W18G25    30.01S
GRAND FORKS    MOSUNNY   74  52  46 W16G30    29.88S
FARGO          MOSUNNY   75  51  43 W18       29.93S
BUFFALO SD       N/A     73  44  35 NW29G38   30.06S
RAPID CITY     SUNNY     76  46  34 N12       30.13F
$$

REGIONAL REPORTS...WYOMING/IDAHO/WASHINGTON

CITY           SKY/WX    TMP DP  RH WIND       PRES   REMARKS
GILLETTE       CLOUDY    67  42  40 NW15      30.20F
SHERIDAN       CLOUDY    64  43  46 NW12      30.24S
BUFFALO WY     CLOUDY    63  42  46 NW17G29   30.27S
CODY           CLOUDY    59  43  55 N18G24    30.26S
YELLOWSTONE LA   N/A     40  40 100 NW3       30.35R
IDAHO FALLS    MOSUNNY   76  33  21 NW9       30.13F
SALMON         SUNNY     73  32  21 W3        30.16F
BOISE          SUNNY     82  30  15 W14G23    30.09F
SPOKANE        MOSUNNY   80  39  23 VRB7      30.20F
$$

REGIONAL REPORTS...ALBERTA

CITY           SKY/WX    TMP DP  RH WIND       PRES   REMARKS
EDMONTON       MOSUNNY   72  48  43 W6        30.24S
CALGARY        MOSUNNY   66  41  39 N8        30.33F
LETHBRIDGE     MOSUNNY   68  36  30 NW15G22   30.32S
MEDICINE HAT   CLOUDY    66  46  48 N6        30.26S
WATERTON GATE    N/A     66  34  30 E6          N/A
CARDSTON         N/A     66  34  30 N7          N/A
MILK RIVER       N/A     63  39  42 N9G17       N/A
ONEFOUR          N/A     55  50  82 NW12        N/A
$$

REGIONAL REPORTS...SASKATCHEWAN

CITY           SKY/WX    TMP DP  RH WIND       PRES   REMARKS
SWIFT CURRENT  CLOUDY    57  48  72 N14       30.20S
REGINA         CLOUDY    57  50  77 N22       30.08R
SASKATOON      MOSUNNY   66  50  55 NW7       30.14F
CYPRESS HILLS    N/A     52  46  82 N7          N/A
VAL MARIE        N/A     59  45  58 N17         N/A
ROCKGLEN         N/A     50  48  93 N15G23      N/A
ASSINIBOIA       N/A     72  45  37 W9          N/A
$$



USA.gov is the U.S. government's official web portal to all federal, state and local government web resources and services.